Wind_Speed
18 17 17 17 17 18 18 19 20 20 21 21 21 20 19 18 18 18 19 21 24 25 25 24 23 23 22 22 21 22 22 22 22 22 22 19 16 15 16 17 20 22 22 22 21 19 18 17 15 11 9 7 7 6 4 3 2 2 3 4 7 12 15 14 10 9 16 21 24 22 20 19 17 17 17 18 17 15 15 14 12 10 11 13 14 16 19 19
19 18 18 18 18 18 19 19 20 21 22 22 22 22 21 20 19 18 18 20 22 25 26 26 25 24 23 23 22 22 23 23 23 24 22 18 17 18 19 20 21 23 24 24 23 22 20 20 17 12 9 7 6 5 4 3 2 2 2 3 7 11 11 6 2 11 22 28 25 22 22 20 19 20 19 20 19 17 16 15 14 12 11 12 12 14 18 19
22 20 19 18 18 19 20 20 21 21 22 23 23 24 23 22 21 20 19 19 20 23 26 27 26 25 24 24 24 23 23 23 25 25 22 19 20 20 21 21 21 22 24 24 24 24 22 20 17 13 10 8 7 5 5 4 3 2 1 3 6 8 8 11 15 21 26 28 25 22 21 19 18 19 20 20 19 19 18 17 17 16 13 11 11 13 17 19
25 24 22 21 20 20 20 21 22 22 23 24 24 25 25 24 23 22 21 20 20 22 24 27 27 26 26 25 25 24 24 24 26 25 21 21 22 22 22 22 21 21 22 24 25 25 23 20 18 15 12 11 9 7 6 5 4 3 1 2 5 6 11 14 18 23 25 26 24 21 19 17 16 16 17 18 17 18 18 17 18 18 15 12 12 14 17 19
26 26 25 24 23 23 22 22 22 23 24 25 25 26 26 26 26 24 23 21 21 22 23 25 27 27 27 27 26 26 26 26 27 24 21 23 23 23 23 22 22 21 22 24 26 26 25 23 20 17 15 14 13 10 8 6 6 5 3 3 4 6 11 12 14 18 21 22 21 19 18 16 13 11 13 15 14 16 17 16 16 18 17 16 16 16 18 19
28 27 26 26 25 25 25 25 24 24 24 25 26 27 27 27 27 27 25 23 23 23 23 24 26 28 28 28 27 27 27 27 26 23 23 24 24 24 24 23 23 21 22 24 26 27 27 26 23 20 20 19 17 14 12 9 8 7 5 4 4 7 11 11 11 15 18 18 17 16 15 15 13 10 11 11 12 15 16 16 16 17 17 16 18 19 19 19
30 28 28 27 26 26 26 26 27 27 26 26 26 27 28 28 28 28 27 26 24 24 24 24 25 27 28 29 28 28 28 27 26 24 25 25 24 25 25 24 24 22 23 25 27 28 28 27 25 24 24 23 21 18 15 12 10 8 6 5 4 6 8 10 12 14 16 15 14 14 13 14 13 12 12 11 12 14 15 16 16 16 16 16 17 19 19 19
32 30 29 29 28 28 27 27 27 28 29 28 28 28 28 29 29 29 29 28 26 25 25 25 25 26 28 29 29 29 29 28 27 26 26 26 26 26 25 24 25 24 25 26 27 28 28 28 27 27 28 26 24 21 19 16 13 11 8 7 5 6 7 11 16 16 15 14 12 13 13 13 12 12 13 13 14 14 15 16 15 14 16 16 16 18 19 19
33 32 31 30 29 29 29 29 28 29 29 30 29 29 29 29 29 29 29 29 28 26 26 26 26 26 27 29 31 31 29 29 28 27 27 27 27 27 25 25 26 26 27 26 26 27 28 28 28 29 28 26 25 24 23 20 16 14 12 9 8 7 6 8 16 18 16 14 12 13 13 12 11 12 12 13 15 16 16 16 15 13 15 16 16 18 19 19
34 33 32 31 31 30 30 30 30 30 30 30 30 30 30 29 29 29 29 30 29 28 27 27 28 27 28 29 31 32 30 29 29 29 28 27 28 27 26 26 27 28 28 27 27 28 28 28 28 30 28 26 26 26 25 22 19 16 15 14 11 9 7 5 11 17 16 13 12 12 13 12 11 11 12 13 15 17 17 16 15 14 14 15 17 17 19 19
34 34 33 33 32 31 31 31 31 31 31 31 31 31 31 30 29 29 29 30 30 29 28 28 28 29 29 30 32 32 31 30 30 29 29 28 28 29 28 28 29 29 29 29 29 28 28 28 28 29 29 26 25 26 26 24 22 19 18 18 13 9 8 6 7 11 12 10 11 13 13 12 11 10 11 13 15 16 17 17 15 15 14 15 16 18 19 19
34 34 34 33 33 33 32 33 32 31 31 31 31 31 31 30 30 29 29 30 30 30 29 29 29 30 30 32 32 31 31 31 31 30 29 29 29 29 29 30 30 30 30 29 29 29 28 28 28 29 28 27 24 24 24 23 23 22 21 20 15 11 10 8 8 9 11 11 11 13 14 13 12 10 9 10 14 16 17 17 17 16 15 14 16 18 19 18
35 35 35 35 34 34 33 33 32 31 31 31 31 31 31 30 30 29 29 29 29 30 30 30 30 31 32 33 32 31 31 32 32 31 30 30 30 30 30 30 30 30 30 29 29 29 29 28 28 28 27 26 23 21 21 22 22 22 22 21 18 15 13 11 11 10 11 12 12 14 15 14 12 11 9 9 12 15 17 17 18 18 16 15 15 17 18 17
36 36 36 35 35 34 33 32 31 30 30 30 31 31 30 30 29 29 28 29 29 29 30 30 31 31 32 33 33 33 32 33 33 32 31 31 31 31 31 31 31 30 29 28 28 28 28 28 28 29 27 26 23 20 19 19 20 20 20 21 19 18 17 16 14 12 12 12 13 15 16 16 14 12 10 10 11 14 17 17 18 19 18 16 14 16 17 17
36 36 36 35 34 33 31 30 29 28 28 28 29 30 29 28 28 27 27 28 28 29 29 30 31 31 33 34 34 34 33 34 34 33 32 32 32 32 32 32 32 31 29 28 27 28 28 28 29 29 27 26 23 21 19 17 17 17 17 19 20 19 20 20 18 15 14 14 13 15 18 19 16 14 12 11 12 13 16 18 18 19 19 18 15 14 15 16
36 36 35 34 32 30 29 28 26 25 24 24 25 26 27 27 26 26 26 27 27 28 28 29 31 31 32 33 34 34 35 35 34 34 33 33 32 32 32 33 33 32 31 29 29 29 28 29 29 27 26 26 24 21 18 17 16 16 16 17 18 20 21 21 21 18 17 16 14 15 20 21 17 16 14 13 13 12 15 17 18 19 19 19 16 14 15 16
35 35 33 32 30 28 27 26 23 21 20 21 21 22 23 23 24 24 24 25 26 27 27 28 29 30 32 32 33 35 35 35 35 34 33 33 32 32 32 32 32 33 32 31 30 30 29 29 28 26 26 26 24 21 18 17 15 15 16 15 17 20 20 20 22 21 20 19 16 15 20 22 20 18 16 15 14 13 15 17 18 19 19 19 18 15 16 17
34 33 31 30 28 26 25 24 21 19 18 18 18 19 19 19 20 21 21 22 23 25 26 27 28 29 31 31 32 34 35 36 36 35 34 33 32 32 32 32 32 33 33 33 32 31 30 29 29 28 28 27 24 22 19 18 18 16 17 17 17 18 19 20 23 23 22 21 17 16 19 22 23 21 19 18 16 14 15 16 17 18 19 20 18 17 16 17
32 30 29 27 26 24 23 22 19 17 16 16 16 17 17 16 16 17 17 18 20 22 24 26 27 28 28 29 31 32 34 35 36 35 34 33 32 32 33 32 32 33 33 33 32 32 31 30 30 29 27 26 24 23 23 21 21 19 18 18 17 18 20 22 24 24 24 21 18 17 18 20 24 24 21 20 18 16 15 15 16 17 18 20 19 18 17 18
30 28 26 25 24 23 21 20 18 16 15 15 15 15 14 14 14 14 14 15 17 19 21 23 25 26 26 27 29 31 33 35 36 36 34 33 33 33 33 33 33 33 33 33 33 32 31 31 30 27 26 26 26 26 26 23 22 20 19 18 17 19 21 23 25 26 25 21 18 20 20 18 23 26 24 21 19 17 15 14 15 16 17 19 20 19 18 18
28 26 25 24 23 21 20 18 16 15 14 13 13 12 12 11 12 13 13 14 15 17 19 21 23 25 25 26 28 30 32 34 35 35 35 34 33 33 34 34 33 33 33 33 33 32 32 31 29 27 28 29 28 28 27 24 23 21 19 17 17 18 19 20 24 25 24 22 19 19 20 19 23 28 27 25 21 18 17 15 15 16 17 18 20 20 20 18
27 25 24 24 22 20 18 16 14 13 13 12 11 11 10 10 10 11 13 14 15 16 18 19 21 23 24 25 27 28 30 32 33 34 34 34 34 34 34 33 33 33 33 33 32 33 33 32 29 28 29 29 28 28 26 25 24 22 20 17 17 18 17 18 21 24 24 23 21 18 19 20 24 31 30 28 26 22 20 18 17 18 18 18 19 20 20 18
26 25 24 23 21 20 17 15 13 12 11 10 10 10 10 9 10 10 12 13 15 16 17 19 21 22 24 25 26 27 28 30 31 32 33 34 35 34 33 33 33 33 33 32 31 32 32 31 30 29 30 29 28 27 26 26 25 24 22 19 20 20 17 17 21 25 24 23 21 18 17 19 26 33 33 31 28 25 21 19 18 19 19 19 19 19 19 18
26 25 24 22 21 19 16 14 12 12 11 11 11 10 9 9 9 10 11 12 14 16 18 20 21 22 24 25 25 26 28 29 30 31 33 35 35 34 33 34 34 33 32 31 31 31 32 33 32 29 29 30 28 27 27 26 26 27 25 22 21 21 21 20 22 24 24 22 21 17 15 18 26 33 35 32 29 26 24 21 19 19 20 20 19 19 19 19
25 25 23 22 20 18 16 13 12 12 12 11 11 10 10 9 9 10 10 11 13 15 17 19 21 23 24 24 25 26 27 28 30 32 34 35 34 34 35 35 34 33 32 31 31 32 34 34 32 30 30 29 28 27 28 28 28 28 27 24 20 19 21 22 22 23 23 22 21 18 15 17 25 32 34 33 30 28 26 22 20 20 20 20 18 18 19 20
25 24 23 21 19 17 15 13 12 12 11 11 10 10 10 9 9 9 10 11 12 14 16 18 21 23 24 25 26 25 26 28 30 32 34 36 36 36 35 34 34 34 33 32 31 34 36 34 33 33 30 29 28 28 29 30 29 28 29 27 22 20 21 22 22 22 22 21 20 19 16 15 23 32 34 33 32 29 28 25 22 22 21 20 18 18 19 20
25 24 22 20 18 16 14 12 12 11 11 10 10 10 10 10 9 8 8 9 11 13 15 17 19 21 23 25 25 25 27 28 29 31 34 35 36 36 35 35 35 34 33 32 33 35 35 33 34 33 31 30 29 28 29 30 29 29 28 27 24 23 23 22 22 21 21 21 18 17 15 13 20 33 33 32 33 31 30 28 23 22 22 21 20 20 20 20
25 24 21 19 16 14 12 11 11 11 10 10 10 10 10 10 8 6 6 8 10 11 14 17 18 20 22 23 25 27 28 28 29 31 33 35 36 37 37 37 35 34 32 31 33 34 31 32 34 32 31 30 29 30 31 31 31 31 28 26 26 26 25 23 23 22 21 20 18 17 15 10 16 31 33 30 33 32 30 27 23 22 23 23 22 22 22 22
24 23 20 18 15 13 11 11 10 10 10 10 10 9 8 6 4 3 4 6 8 11 13 16 18 20 21 23 25 26 25 27 31 32 33 35 36 37 38 37 36 35 33 31 32 34 33 34 35 33 32 31 30 32 32 33 33 30 27 28 28 28 27 24 23 23 21 20 19 19 17 10 11 26 33 29 28 28 28 27 25 24 25 24 24 24 24 23
24 22 19 16 13 12 11 10 10 10 11 10 9 7 6 5 3 2 3 5 7 9 12 14 17 19 20 22 23 24 25 28 30 31 33 35 36 38 38 38 37 35 33 33 35 36 34 35 35 34 34 34 34 34 34 36 35 30 30 30 29 28 29 26 25 24 21 21 21 19 17 14 10 18 27 27 24 25 27 27 28 28 27 26 27 27 25 24
23 21 18 15 12 10 9 9 9 10 10 9 7 6 6 7 5 2 2 4 5 7 11 13 16 18 19 21 21 23 26 27 28 30 32 35 36 38 38 37 37 35 35 36 37 34 32 34 35 35 35 34 34 33 35 37 35 33 33 31 28 28 28 28 27 25 22 21 22 21 19 17 13 12 17 20 21 22 24 24 26 28 28 27 27 28 27 26
22 20 17 13 10 9 8 8 9 9 9 7 6 6 7 7 6 5 3 2 3 6 9 12 14 16 18 20 21 23 25 26 28 30 31 34 36 37 38 37 37 37 36 37 36 33 32 34 36 35 35 34 33 34 35 37 35 35 35 32 30 27 25 26 27 26 23 21 21 23 21 18 15 13 11 12 14 17 19 19 21 24 27 29 29 29 29 28
21 19 15 12 9 8 7 8 8 8 7 5 6 7 7 6 7 6 5 3 3 5 8 10 13 14 15 16 19 23 25 26 28 29 30 33 35 37 38 39 40 39 37 37 37 35 34 36 36 36 36 35 35 36 36 36 36 37 37 34 31 28 24 24 25 24 23 23 23 24 23 20 16 13 11 11 11 12 14 15 17 18 22 28 31 31 31 30
20 17 14 11 8 7 7 7 7 6 5 5 6 6 6 7 7 6 6 6 5 4 4 7 9 11 12 14 17 20 23 25 27 28 29 31 34 37 38 39 39 39 39 40 39 36 34 35 36 36 36 36 36 37 37 37 37 38 37 34 33 30 25 22 24 24 22 24 25 24 24 21 16 12 10 11 12 12 11 12 14 16 18 23 29 32 32 31
19 16 13 10 7 6 6 6 5 4 3 4 5 5 7 8 8 7 7 7 6 4 3 4 6 8 11 13 16 19 21 24 26 28 29 30 32 34 36 37 38 39 40 39 37 37 37 38 38 37 37 36 36 37 37 36 35 35 36 36 33 31 28 24 23 24 23 24 24 23 24 22 17 13 12 11 11 12 13 12 13 14 15 18 24 29 32 32
18 15 12 9 7 5 5 4 3 2 2 4 4 4 7 8 7 8 8 8 7 6 5 3 4 6 8 11 13 17 21 23 25 27 29 30 32 34 36 39 40 41 39 35 36 38 37 38 39 38 36 35 34 35 35 33 32 33 36 37 34 32 31 27 23 23 23 23 22 21 22 22 20 17 14 13 12 12 13 14 14 14 14 14 18 23 28 30
17 14 11 8 6 5 4 3 1 1 2 3 3 4 6 6 7 8 7 7 7 6 5 3 2 3 6 8 10 15 18 20 22 25 27 29 31 34 37 39 39 40 39 37 38 40 37 37 39 38 34 34 34 34 35 33 33 34 35 36 35 33 32 30 26 23 21 21 21 20 20 21 22 19 15 14 14 13 13 14 15 15 14 12 14 19 24 27
16 13 10 8 6 5 3 1 2 2 2 3 3 4 5 4 5 6 6 6 5 4 4 2 1 2 5 7 8 13 15 16 18 21 24 27 28 31 35 36 37 38 39 38 38 39 39 37 38 38 34 33 35 35 35 36 36 36 35 35 35 33 31 30 29 25 21 21 21 20 19 21 21 19 16 15 15 15 15 14 14 14 13 11 13 17 21 26
15 12 9 7 6 5 3 2 3 3 3 3 3 4 4 4 5 5 5 4 2 2 2 2 1 1 5 7 8 11 13 12 15 18 20 24 27 29 32 34 35 37 38 38 38 39 38 32 30 35 35 32 34 36 36 37 38 37 36 37 35 33 31 31 30 27 23 21 20 19 19 21 21 19 17 16 16 15 15 14 13 13 12 11 12 16 22 28
15 12 9 7 6 5 3 2 4 4 4 4 3 3 4 4 5 5 4 4 3 3 2 1 1 1 4 8 9 11 13 11 12 16 18 19 23 27 29 31 33 34 36 38 39 39 38 33 27 31 36 34 34 37 36 36 37 37 37 36 35 34 33 32 31 28 24 22 20 18 19 21 21 19 18 18 16 15 15 15 14 13 12 12 11 13 19 28
14 11 8 7 6 5 4 3 4 5 5 4 4 3 4 4 4 4 4 4 5 5 5 4 2 2 4 7 9 12 14 12 11 15 17 17 18 22 26 29 30 31 33 36 38 37 38 36 30 31 34 33 33 35 34 35 37 36 35 35 35 36 35 33 31 28 26 25 21 19 19 19 19 19 19 18 16 14 14 14 14 14 14 13 12 11 14 23
13 10 8 7 6 6 5 4 4 5 6 5 4 4 4 4 3 3 3 4 5 6 7 7 5 4 4 6 10 13 15 14 13 15 17 15 15 17 20 23 26 29 30 33 36 37 37 38 36 34 32 30 34 37 36 36 36 34 33 35 36 36 35 33 30 27 28 27 23 20 19 17 17 19 18 17 15 14 14 14 14 14 14 14 14 12 12 16
12 9 7 7 7 6 6 5 5 6 6 5 5 4 4 5 5 5 5 5 5 6 7 8 7 6 5 7 11 14 16 15 14 15 17 14 12 13 15 17 21 25 29 31 34 36 36 37 38 36 34 34 38 39 36 35 35 34 35 36 37 37 34 31 30 28 28 28 25 22 20 15 16 19 18 16 16 15 15 14 13 13 14 15 14 11 9 10
11 9 7 7 7 6 6 7 6 7 7 6 5 5 5 6 6 7 7 6 5 5 6 8 9 8 7 8 11 15 16 16 15 15 16 15 13 12 13 14 16 21 26 30 32 34 35 36 36 35 35 37 38 36 34 35 36 36 36 36 36 37 35 33 33 32 29 28 27 26 23 18 18 20 19 17 17 17 17 16 14 13 13 14 13 11 9 8
11 8 7 7 7 7 7 7 7 7 7 6 6 6 6 7 7 7 7 6 6 6 6 8 10 10 9 9 12 15 16 15 15 15 15 15 14 14 13 13 14 18 23 27 31 33 33 34 35 33 32 34 35 35 36 37 36 36 37 38 38 39 37 35 35 34 31 29 29 28 26 20 19 20 19 17 17 17 17 17 16 15 14 13 13 11 10 9
10 7 7 7 7 7 7 8 8 7 7 6 6 6 7 7 7 6 6 6 6 7 7 9 10 11 11 12 12 15 17 17 16 16 16 15 14 13 13 13 14 17 20 23 28 32 32 32 35 34 32 32 33 35 37 36 35 37 39 39 38 39 40 37 35 35 33 31 29 28 26 21 20 21 19 17 18 18 18 18 17 16 15 14 13 12 11 11
9 7 7 8 8 7 7 8 8 8 7 6 6 7 7 7 7 6 5 6 6 7 7 9 10 12 13 14 13 14 17 18 18 17 17 16 15 14 13 13 14 16 18 20 25 31 32 32 33 34 33 33 33 34 36 35 34 35 37 36 36 39 40 39 37 36 34 32 30 28 26 23 22 22 20 19 19 18 18 18 17 18 17 15 13 14 13 12
8 6 7 8 8 8 8 8 8 8 8 7 7 8 8 7 6 5 6 7 7 7 7 8 10 12 14 15 14 14 16 18 19 18 17 16 16 15 14 13 14 16 18 21 23 28 32 33 32 33 34 34 34 34 34 33 32 33 34 35 37 38 38 38 37 35 33 32 30 27 26 26 26 25 22 20 19 19 18 18 18 19 18 17 15 13 13 13
8 6 7 9 9 8 8 7 7 7 7 7 8 8 8 7 6 6 6 6 6 6 6 6 8 11 14 15 15 15 16 18 19 21 20 19 17 17 17 15 15 16 19 22 23 27 31 31 31 32 33 35 36 34 33 32 32 33 33 34 35 36 36 37 37 36 33 31 29 26 26 29 31 30 28 24 21 20 19 19 19 19 18 18 17 15 14 13
7 6 8 9 9 8 8 7 6 7 7 7 8 8 8 7 6 6 6 6 6 6 5 6 7 9 11 13 14 16 18 19 19 21 23 22 21 20 19 17 16 16 19 22 24 26 29 28 28 32 33 33 35 35 34 33 32 33 34 34 34 35 35 37 37 36 32 30 30 28 26 27 30 32 33 30 26 24 23 22 21 20 20 20 19 18 16 15
7 6 8 10 9 9 8 7 6 6 7 8 7 7 8 8 7 5 5 6 6 6 5 6 7 9 9 11 12 14 17 19 20 22 24 25 24 22 19 18 17 17 19 21 23 24 28 29 29 33 33 31 33 36 35 34 34 34 33 32 33 35 36 36 37 36 33 30 29 30 30 28 28 30 33 33 32 30 29 27 25 24 23 22 21 20 19 18
6 7 9 11 10 9 8 7 7 7 7 8 8 7 8 9 8 7 6 5 6 6 5 6 7 9 10 10 10 12 13 16 21 24 25 26 24 22 21 19 18 18 18 20 22 23 28 30 30 33 33 29 30 35 36 35 36 36 33 31 32 34 34 34 34 34 33 31 31 32 33 32 30 30 31 31 32 33 32 32 31 28 27 26 25 24 23 22
Wind_Direction
325 321 316 312 307 302 298 296 294 291 289 287 286 284 280 276 271 264 256 249 245 241 240 239 240 241 241 240 238 236 234 233 231 229 228 226 219 211 209 205 197 197 199 198 199 206 211 212 212 208 201 203 209 207 211 212 205 242 277 310 331 327 318 306 289 228 193 166 155 165 161 156 159 155 155 154 151 154 154 152 155 164 166 164 163 154 142 139
325 320 315 312 307 303 298 294 291 289 287 285 284 282 280 277 272 267 260 252 246 242 239 237 237 238 238 238 237 236 234 232 230 230 229 223 215 210 209 208 203 199 199 199 199 204 211 213 211 206 202 204 206 200 197 185 169 222 278 340 347 340 339 348 94 156 155 148 154 166 161 161 164 158 158 158 154 154 156 154 156 162 169 170 172 162 144 139
325 320 315 310 306 302 298 294 291 287 285 283 282 280 278 276 273 268 262 255 248 244 240 237 235 234 235 236 235 235 234 232 231 231 227 219 215 212 210 211 208 202 201 200 199 204 211 214 212 208 208 211 209 201 195 179 170 206 250 24 8 12 54 83 108 130 141 146 156 164 161 163 165 163 161 161 158 158 159 157 157 157 166 175 176 166 144 138
324 321 317 312 306 301 297 294 291 287 284 282 280 278 276 275 272 268 262 256 251 245 241 238 234 232 232 233 233 232 232 232 232 231 223 218 217 214 212 213 212 207 203 201 200 204 210 214 212 208 211 216 213 207 200 188 183 191 180 84 41 58 96 103 116 130 140 147 156 164 161 160 164 166 163 161 161 163 161 158 158 154 161 172 172 165 145 140
323 320 316 313 308 304 298 294 290 287 284 281 279 276 275 274 272 268 263 256 251 247 242 238 234 232 230 231 232 231 230 230 232 230 221 219 218 215 214 213 213 209 205 203 202 205 209 212 212 210 215 219 215 211 205 196 191 184 169 123 85 112 129 126 129 135 142 149 156 161 158 154 156 161 160 159 161 168 163 159 161 154 159 167 167 162 148 144
322 319 315 312 308 304 301 296 292 287 283 280 278 276 274 272 270 268 265 258 252 248 244 239 234 232 230 229 230 230 230 229 230 227 222 220 217 215 214 212 213 210 207 206 203 205 209 211 211 212 218 220 216 215 212 201 195 190 178 153 127 142 147 147 148 146 147 149 152 154 150 145 141 145 153 155 162 171 166 161 162 157 158 168 169 162 152 149
322 318 315 312 308 304 300 297 293 289 284 280 277 275 273 271 269 267 265 260 254 248 245 241 236 232 230 229 228 229 229 228 228 223 221 220 216 216 215 212 212 209 208 208 205 206 208 209 210 213 218 220 218 219 219 209 199 196 186 181 173 153 162 175 169 160 155 150 147 148 144 140 140 145 151 155 161 170 171 164 162 159 160 171 176 165 156 154
321 318 315 313 309 305 301 296 293 289 285 281 277 274 272 269 267 265 264 261 256 250 245 241 237 232 229 228 228 228 227 227 225 221 220 219 216 217 215 211 210 208 209 210 208 207 207 207 209 213 219 219 218 221 222 216 204 198 195 202 196 156 168 198 185 169 162 155 146 145 147 143 143 148 154 158 160 166 174 167 162 163 162 171 180 169 159 156
321 318 316 313 310 306 302 297 292 288 284 281 278 274 271 268 266 263 261 259 256 250 245 240 236 232 229 227 227 227 225 226 224 221 219 217 216 216 213 210 208 208 209 210 210 209 208 208 208 213 218 218 218 220 221 219 211 202 201 208 210 177 159 199 192 177 166 161 152 148 154 152 145 147 154 161 161 164 171 168 163 166 164 171 182 174 164 159
320 318 316 313 310 307 303 299 294 288 283 279 276 274 271 267 264 261 259 257 254 250 244 239 236 232 229 226 226 226 224 223 223 221 218 215 215 215 211 209 208 209 209 209 210 210 209 208 209 213 216 217 218 219 220 220 216 209 207 210 213 198 166 167 190 182 168 164 163 161 163 162 155 151 155 163 164 164 168 166 163 168 166 172 183 178 170 165
320 318 316 314 311 307 303 299 295 290 284 279 274 271 268 265 261 258 255 253 251 248 243 239 235 231 228 226 225 225 223 222 222 220 218 214 213 213 210 208 208 209 209 208 209 210 210 208 210 214 215 217 219 219 220 221 219 214 211 213 213 204 183 165 184 191 186 181 180 179 176 173 167 160 161 165 166 166 167 164 162 168 167 171 184 181 175 172
321 319 317 314 311 308 304 300 296 291 285 279 273 268 265 262 258 253 250 248 247 245 242 237 234 230 227 225 224 223 222 222 221 220 218 214 212 211 210 210 209 209 208 209 209 209 211 210 212 215 215 218 219 219 220 221 222 219 216 218 219 212 201 186 187 201 208 207 203 197 186 179 175 168 169 170 169 168 168 167 164 167 167 172 185 186 182 178
321 319 317 314 312 309 305 302 298 292 286 279 272 266 262 259 256 251 246 243 242 241 239 236 232 229 226 224 222 221 220 220 220 219 217 215 212 210 209 210 211 210 209 209 210 210 211 211 214 216 216 217 219 218 220 222 223 223 221 223 224 220 216 207 200 200 211 215 215 210 194 184 183 177 178 177 173 170 169 172 170 168 169 173 185 191 188 182
322 320 318 316 313 310 307 303 299 293 287 280 273 267 261 259 256 252 246 241 238 237 236 234 231 227 225 223 221 219 218 218 219 217 216 215 212 210 207 208 210 210 209 208 210 212 213 213 214 216 216 217 217 216 219 221 222 223 223 225 226 225 225 221 212 204 213 221 220 218 205 194 193 187 185 185 178 175 172 173 175 172 170 173 183 194 193 185
323 321 319 317 315 312 309 305 301 296 290 283 276 269 263 260 258 254 248 242 238 235 233 231 228 226 224 222 220 218 216 216 217 216 215 215 213 210 207 206 207 208 207 206 207 210 214 215 216 217 216 216 215 213 216 217 217 218 219 224 223 224 228 225 220 212 214 224 226 227 216 202 197 192 189 190 184 180 178 175 178 178 173 173 179 190 194 188
325 323 321 319 318 315 312 309 305 301 297 290 281 272 266 262 259 256 251 244 238 235 232 229 227 224 222 221 218 217 216 215 215 215 215 214 213 211 209 207 205 205 205 204 205 207 210 213 216 219 218 217 214 208 210 211 211 212 210 217 219 220 225 224 222 219 216 220 222 229 222 206 198 196 191 192 187 183 186 181 178 181 179 172 174 185 193 191
327 325 323 322 321 318 315 313 310 308 305 298 287 277 270 265 261 258 253 246 240 235 231 228 226 223 221 219 217 216 215 214 214 214 214 213 213 212 211 210 206 205 204 202 203 204 207 210 213 217 219 219 214 205 203 207 209 211 206 209 216 218 221 222 224 223 220 219 215 224 225 207 196 196 194 192 190 187 191 189 181 182 182 172 172 183 190 192
329 327 325 325 324 322 318 315 312 311 308 302 293 284 277 270 264 260 255 248 242 237 231 227 224 222 220 218 216 215 214 213 213 213 213 212 213 212 211 211 208 206 205 203 202 203 205 207 208 211 215 216 214 204 200 203 205 208 206 206 214 219 219 219 222 222 219 220 216 220 225 212 201 199 196 193 193 192 193 194 188 185 182 172 171 183 189 192
331 329 328 328 328 326 321 317 312 308 305 299 293 287 280 275 269 262 256 250 243 237 231 227 225 223 221 218 215 214 213 213 213 212 211 210 211 211 211 211 209 208 207 205 203 203 204 206 207 208 210 212 211 204 201 202 201 202 205 205 211 217 216 215 218 219 217 219 220 220 221 216 208 202 196 194 194 194 194 196 193 188 183 173 172 183 190 194
333 331 330 330 330 327 323 318 311 305 302 298 294 290 281 273 267 261 256 249 242 236 231 228 225 223 220 217 215 213 212 212 212 210 209 208 208 209 211 211 210 209 209 206 204 205 204 205 207 205 207 208 208 205 204 201 199 200 203 204 209 217 219 217 217 218 217 217 222 222 219 217 211 203 196 194 196 195 194 195 194 190 186 179 176 182 190 195
334 332 331 330 329 327 324 319 312 307 304 302 301 297 287 273 264 257 251 244 238 233 230 227 225 223 220 217 214 212 212 212 211 210 208 207 207 208 210 210 210 210 210 208 205 204 205 206 205 203 205 206 206 206 203 200 199 199 202 203 208 217 222 221 219 218 216 215 220 221 222 223 214 203 193 192 196 197 194 195 194 190 188 186 182 182 189 193
335 333 331 329 328 326 323 319 315 312 310 309 305 300 293 280 266 257 248 241 234 228 225 224 223 221 220 217 214 212 211 211 211 209 207 206 206 207 208 210 209 210 210 209 207 205 206 205 203 204 205 204 205 205 202 200 198 199 202 204 209 215 220 224 222 217 212 212 215 218 226 229 215 202 194 191 194 195 194 195 194 191 190 192 189 184 187 191
336 334 331 329 328 325 322 320 318 315 312 311 304 297 295 285 273 260 249 241 233 225 220 218 218 218 217 217 214 211 209 209 208 207 205 205 206 206 207 209 210 210 210 209 208 209 208 205 204 205 205 203 203 201 199 199 198 198 199 202 211 211 210 221 222 214 209 208 211 216 227 226 211 201 194 191 194 195 194 194 193 191 191 195 195 189 187 189
337 335 332 330 328 325 321 320 317 314 310 307 302 299 295 287 278 266 254 243 233 224 218 215 214 215 215 214 212 210 208 206 205 203 203 205 205 204 205 207 209 209 209 209 208 209 210 208 205 204 204 204 202 198 197 197 198 200 199 201 210 209 205 211 212 207 206 207 209 217 228 221 209 202 194 191 194 197 198 197 194 193 194 196 198 194 189 189
338 337 334 331 329 325 322 320 316 312 310 307 304 302 297 290 284 272 258 246 234 223 217 214 212 212 212 211 210 209 207 206 204 201 201 202 203 203 205 206 207 207 208 208 207 208 210 209 208 207 204 204 201 196 195 197 199 202 202 202 208 210 209 210 204 200 203 207 210 219 229 221 211 204 197 194 195 198 201 200 196 196 196 196 199 198 195 193
338 337 334 332 329 325 323 321 316 314 313 312 308 304 301 296 288 275 259 248 236 223 216 213 212 211 209 209 207 205 206 206 204 201 200 201 201 202 204 205 207 206 205 205 206 209 210 207 208 208 205 203 201 196 196 198 200 202 203 203 205 207 210 210 202 200 204 208 213 218 224 230 216 204 198 196 195 197 201 201 201 201 197 195 195 198 200 199
338 337 335 332 329 326 325 322 320 319 319 317 312 309 306 301 295 279 257 247 237 224 215 211 211 209 208 208 204 201 204 204 203 202 201 200 200 200 202 204 206 206 204 204 206 210 209 206 209 207 204 203 200 197 197 198 201 203 202 202 205 206 209 209 202 200 207 212 215 213 218 237 219 200 195 197 197 198 200 201 203 204 200 196 193 196 202 201
338 337 335 332 329 328 327 325 325 325 324 320 316 314 312 309 303 279 246 237 232 222 212 207 206 206 207 207 203 202 203 200 200 202 201 199 199 199 201 203 204 204 204 205 209 211 207 208 210 207 204 203 199 198 197 196 202 204 198 197 204 209 210 209 203 201 207 214 217 213 213 235 214 194 191 196 198 199 201 204 208 207 204 200 194 196 201 201
339 338 336 333 332 330 328 327 328 330 328 324 323 324 325 327 320 289 244 224 219 214 208 204 202 203 204 204 204 204 202 199 199 199 199 199 199 199 200 202 203 202 200 202 210 210 206 208 209 205 204 201 200 201 199 198 202 201 195 196 204 210 212 212 208 205 207 214 219 217 215 226 209 193 191 193 196 198 202 207 213 212 207 202 197 197 202 201
339 338 337 335 334 333 329 329 332 335 333 333 338 346 1 16 18 318 237 208 209 209 203 200 201 201 200 201 203 202 200 202 202 199 198 198 199 199 200 201 202 201 198 201 209 208 205 209 209 205 204 200 200 201 199 201 201 197 195 200 205 210 212 213 212 208 209 217 223 221 216 217 214 201 196 194 194 200 205 210 217 219 213 204 199 199 202 202
340 338 337 337 336 334 330 332 336 338 339 345 359 23 43 48 58 79 165 187 202 207 200 199 201 200 197 196 198 200 200 202 202 200 199 198 199 200 201 201 201 200 198 202 209 207 206 210 210 207 205 202 202 202 203 204 200 195 198 201 204 210 214 215 217 214 211 219 226 225 220 217 227 227 205 194 194 202 207 211 219 225 220 208 200 201 202 203
340 338 338 337 336 334 332 335 339 341 346 358 23 52 61 55 65 85 99 146 195 201 198 199 199 200 198 194 196 197 197 201 202 201 200 199 200 200 200 200 199 200 199 202 207 205 205 211 211 208 205 202 202 203 206 207 200 196 200 203 204 208 213 215 219 220 218 222 227 227 226 224 233 242 226 207 201 200 205 210 215 221 220 210 201 200 203 204
340 338 338 336 336 335 333 336 341 345 354 15 44 61 69 67 76 89 92 103 143 177 189 197 199 200 196 195 202 198 194 199 201 201 202 201 201 200 200 201 199 198 200 202 205 203 204 210 212 210 206 203 202 204 207 208 203 200 202 204 205 206 210 215 217 219 221 227 230 228 228 229 234 240 238 232 225 210 207 211 214 217 218 212 203 200 203 205
340 338 337 336 335 336 334 336 343 351 6 41 58 64 74 79 82 86 91 99 107 128 167 188 195 198 189 192 206 200 196 202 198 198 202 202 203 202 202 203 200 199 200 200 202 202 203 210 213 211 208 204 203 206 207 207 205 204 203 204 207 207 207 214 217 217 221 228 231 230 230 231 234 240 237 233 234 228 221 218 216 217 220 217 209 204 203 206
339 338 336 334 331 333 333 333 347 5 31 57 61 71 86 89 86 84 89 94 94 97 118 161 180 191 189 194 205 199 199 206 201 197 200 201 205 205 203 204 202 201 203 201 201 202 203 208 210 210 210 205 204 207 209 208 206 207 207 206 209 210 209 213 217 217 222 229 232 232 233 233 234 239 239 233 232 233 232 229 223 219 220 222 219 212 208 206
338 337 334 330 326 328 330 333 353 29 66 71 72 88 98 101 99 94 92 89 84 85 90 116 158 183 192 195 203 202 201 206 202 198 199 200 204 206 204 204 202 202 202 200 201 203 205 211 211 209 209 207 205 209 210 209 206 207 209 209 209 211 211 212 216 218 222 229 232 232 233 234 233 235 237 233 228 227 229 231 229 227 226 227 227 224 219 213
336 336 332 325 320 320 326 335 6 114 92 91 112 115 105 110 111 102 97 92 84 72 73 97 147 187 201 192 198 205 203 203 202 201 203 203 206 209 208 206 203 202 201 201 202 202 204 212 212 209 209 207 206 208 208 206 206 207 209 210 211 213 213 212 214 218 220 224 229 229 230 231 230 229 229 227 225 224 223 224 225 227 230 232 233 233 232 227
334 334 329 320 312 308 316 311 173 146 116 125 145 136 123 128 127 115 105 98 88 65 61 78 156 192 201 188 196 206 199 199 203 203 205 206 208 213 212 209 206 203 202 202 204 204 204 212 214 209 208 208 207 208 208 206 207 207 206 208 211 214 217 216 216 218 219 220 225 228 229 230 228 226 224 223 223 224 224 223 222 224 227 232 237 237 237 237
332 331 324 313 301 293 300 265 185 162 152 160 163 157 152 158 152 141 131 125 120 86 63 41 29 177 188 180 190 200 194 196 203 204 206 208 210 213 212 211 209 205 203 203 205 206 204 210 217 211 208 209 208 208 208 207 209 208 205 207 209 210 214 217 216 217 217 219 223 225 226 228 226 223 225 226 224 225 227 226 224 225 227 233 243 243 240 239
331 327 316 304 289 278 283 259 201 182 174 177 179 178 174 174 170 160 157 168 187 198 199 248 335 247 194 180 184 195 196 199 199 197 202 210 213 213 212 213 212 208 205 204 205 207 205 208 216 212 208 208 209 209 210 210 211 210 208 207 208 209 212 214 215 214 213 216 220 219 221 224 221 219 223 225 224 225 228 228 226 227 230 237 246 248 242 237
328 321 308 293 280 268 267 250 208 190 185 187 190 189 192 194 187 174 175 192 207 213 212 212 222 228 195 182 187 196 199 204 202 194 198 209 213 212 212 213 213 211 208 207 208 208 207 208 212 212 209 209 213 212 211 212 211 211 210 210 209 210 212 214 215 215 215 215 215 214 217 216 211 213 219 221 220 221 227 229 228 228 233 240 246 249 244 234
325 315 300 284 272 265 261 246 211 195 193 194 194 199 213 225 226 215 201 202 213 220 215 207 203 204 191 184 192 197 200 205 207 199 199 208 211 211 212 211 211 211 209 210 210 210 210 209 211 213 208 209 215 214 211 212 212 210 210 211 211 213 214 215 216 217 217 217 215 215 217 213 206 210 217 221 221 221 225 230 229 229 233 239 244 247 244 233
322 310 293 277 268 264 259 250 222 202 196 193 194 204 218 230 240 242 234 225 221 223 219 210 201 200 201 193 192 196 202 205 206 203 203 208 210 210 212 210 209 208 209 211 212 212 212 211 212 213 209 209 214 213 211 212 211 210 209 209 211 214 216 216 218 220 219 217 217 218 219 214 209 213 218 222 226 225 226 232 234 232 234 240 245 248 247 243
319 303 281 267 264 261 254 249 232 210 200 195 196 208 215 220 233 241 244 245 239 233 225 213 203 201 206 202 194 195 202 205 203 202 207 212 214 215 216 212 207 205 206 210 212 212 213 212 212 213 213 215 217 216 214 213 211 209 210 210 210 212 214 215 216 219 220 217 217 219 218 213 209 215 221 225 227 226 225 228 233 236 239 243 249 253 254 254
314 297 273 259 256 258 252 241 230 221 212 201 198 209 215 217 226 235 240 246 245 241 233 218 207 201 202 205 200 198 204 207 202 201 209 216 218 221 222 217 210 206 206 208 210 211 211 212 212 212 212 216 218 218 217 215 212 211 210 210 208 209 212 214 214 218 219 217 218 220 219 214 209 214 218 222 226 225 223 223 226 234 239 243 247 252 252 248
308 290 267 254 248 251 249 236 229 229 225 215 212 217 220 220 224 233 240 244 244 241 236 227 215 205 203 205 206 205 207 208 204 203 208 216 221 224 226 222 214 210 209 209 209 209 209 210 211 211 211 212 214 217 219 216 214 214 213 212 209 209 212 214 215 218 218 218 220 222 221 213 208 210 209 213 221 223 221 221 222 228 235 240 242 244 245 243
301 282 255 244 241 244 246 238 232 233 230 226 229 229 225 222 222 232 243 246 247 243 237 231 222 215 210 207 208 209 209 210 210 209 207 210 215 221 224 224 217 212 212 211 208 208 208 209 211 211 212 212 211 214 217 217 216 217 218 216 213 212 214 214 216 219 220 220 222 223 221 214 208 207 204 205 214 219 219 219 219 224 229 232 235 238 241 243
292 271 239 231 235 240 244 238 233 237 236 232 234 233 227 221 218 227 239 243 247 245 238 232 225 221 218 214 212 211 210 211 214 216 215 211 211 216 219 221 220 216 214 212 209 207 206 208 212 212 212 214 214 214 215 215 216 218 218 219 217 216 217 217 218 222 222 222 222 223 223 220 214 211 207 205 208 213 215 216 218 222 224 225 226 227 232 238
280 257 229 222 226 234 239 236 232 239 241 234 235 235 228 221 219 223 232 237 240 244 246 239 227 222 220 218 215 210 211 215 216 217 220 219 218 218 216 215 216 216 216 213 210 207 205 206 211 212 211 214 215 215 216 215 215 217 217 219 219 219 218 218 220 222 223 224 224 223 221 221 218 216 215 213 211 213 216 217 218 219 219 220 220 217 219 224
273 249 222 215 219 226 232 232 232 239 240 234 237 239 231 225 224 223 227 231 235 245 256 248 232 226 222 219 217 214 215 221 221 218 220 222 222 221 218 216 214 214 218 217 212 208 204 205 209 209 210 214 216 215 216 214 213 215 215 216 217 218 218 218 219 222 225 227 228 225 221 221 222 222 222 222 220 220 223 224 223 222 219 218 217 216 219 222
270 244 214 211 215 219 225 227 224 229 235 235 238 239 233 228 227 227 226 228 232 242 257 251 236 228 222 217 218 221 224 229 229 226 223 223 224 223 221 219 215 215 219 219 216 212 206 204 208 208 208 213 216 214 214 214 214 215 216 216 217 218 220 220 221 224 228 230 233 233 229 225 225 226 226 226 227 228 229 229 228 227 225 223 221 222 226 230
261 235 210 208 211 212 217 225 221 219 227 234 238 241 238 231 228 228 227 226 230 236 245 250 237 225 221 221 225 233 238 238 235 232 230 228 226 225 224 222 219 218 220 220 219 217 210 206 208 208 207 211 214 212 213 214 215 215 215 215 218 220 222 223 225 228 232 233 233 234 233 229 230 232 230 228 229 229 230 230 230 230 231 230 229 230 232 235
Height
5871 5871 5870 5869 5868 5867 5866 5865 5865 5864 5864 5863 5863 5863 5863 5863 5863 5863 5864 5864 5865 5866 5867 5868 5869 5871 5872 5873 5874 5875 5876 5877 5879 5880 5881 5884 5886 5888 5889 5890 5891 5893 5894 5895 5897 5898 5898 5899 5901 5902 5904 5905 5906 5906 5907 5908 5909 5909 5909 5909 5908 5906 5904 5901 5898 5898 5901 5905 5908 5910 5912 5913 5914 5915 5916 5916 5917 5919 5920 5921 5922 5924 5924 5925 5925 5924 5923 5923
5870 5869 5868 5867 5866 5865 5864 5863 5863 5862 5861 5861 5861 5860 5860 5861 5861 5861 5861 5862 5862 5863 5864 5865 5867 5868 5869 5870 5871 5873 5873 5875 5876 5877 5880 5883 5884 5886 5887 5888 5889 5891 5892 5893 5895 5896 5897 5898 5900 5902 5904 5905 5905 5906 5907 5908 5909 5909 5909 5908 5907 5906 5903 5899 5896 5897 5901 5905 5908 5910 5911 5913 5913 5914 5915 5916 5916 5918 5920 5920 5922 5923 5925 5925 5926 5925 5924 5924
5867 5866 5866 5865 5864 5863 5862 5861 5860 5860 5859 5858 5858 5858 5858 5858 5858 5859 5859 5859 5859 5860 5861 5862 5864 5865 5866 5867 5869 5870 5871 5872 5873 5875 5878 5881 5882 5883 5885 5886 5887 5889 5890 5892 5894 5895 5896 5898 5900 5902 5904 5904 5905 5906 5907 5908 5909 5909 5909 5909 5908 5906 5904 5901 5899 5900 5903 5905 5908 5911 5912 5913 5914 5914 5915 5916 5916 5918 5919 5920 5921 5922 5925 5926 5927 5926 5925 5925
5864 5863 5862 5862 5861 5861 5860 5859 5858 5857 5856 5856 5855 5855 5855 5855 5855 5856 5856 5857 5857 5857 5858 5859 5861 5862 5864 5865 5866 5867 5869 5870 5871 5873 5877 5878 5879 5881 5882 5884 5886 5887 5889 5891 5893 5894 5896 5897 5899 5902 5903 5903 5905 5906 5907 5908 5909 5909 5909 5909 5909 5908 5906 5905 5904 5904 5906 5907 5909 5911 5912 5913 5914 5915 5915 5916 5917 5918 5919 5920 5921 5921 5924 5926 5927 5927 5926 5926
5862 5861 5859 5858 5858 5857 5856 5856 5855 5854 5854 5853 5852 5852 5852 5852 5852 5852 5853 5854 5854 5854 5855 5856 5857 5859 5861 5862 5863 5864 5866 5867 5868 5872 5874 5876 5877 5878 5880 5882 5884 5886 5888 5889 5891 5893 5894 5896 5898 5900 5901 5902 5903 5905 5906 5907 5908 5909 5909 5909 5909 5909 5908 5908 5908 5908 5908 5909 5910 5912 5912 5913 5915 5916 5916 5917 5918 5919 5919 5921 5922 5922 5923 5925 5927 5927 5927 5927
5860 5858 5857 5856 5854 5853 5852 5852 5851 5851 5850 5850 5849 5849 5849 5849 5849 5849 5849 5851 5851 5852 5852 5853 5854 5856 5857 5859 5860 5861 5863 5864 5866 5869 5872 5873 5875 5876 5878 5880 5882 5884 5886 5888 5889 5891 5892 5894 5897 5899 5899 5900 5902 5904 5905 5906 5908 5909 5909 5910 5909 5910 5910 5909 5910 5910 5910 5911 5912 5913 5913 5914 5915 5917 5917 5917 5918 5919 5920 5921 5923 5924 5924 5926 5927 5927 5927 5928
5857 5856 5854 5853 5852 5850 5849 5848 5847 5847 5846 5846 5846 5845 5845 5845 5845 5845 5846 5847 5848 5849 5849 5850 5851 5853 5854 5856 5857 5858 5860 5862 5864 5867 5869 5870 5872 5873 5875 5878 5880 5883 5884 5886 5887 5888 5890 5893 5895 5897 5897 5899 5901 5902 5904 5906 5907 5908 5909 5909 5909 5910 5911 5911 5911 5911 5911 5911 5912 5914 5914 5915 5916 5916 5917 5918 5919 5920 5921 5922 5923 5924 5925 5927 5928 5928 5928 5929
5854 5853 5851 5850 5848 5847 5846 5845 5844 5842 5842 5842 5842 5842 5841 5841 5841 5841 5842 5842 5844 5845 5846 5847 5848 5849 5851 5852 5854 5855 5857 5859 5861 5864 5865 5867 5869 5871 5873 5876 5878 5880 5882 5883 5885 5886 5888 5891 5893 5894 5895 5897 5899 5901 5903 5905 5907 5908 5909 5909 5909 5911 5912 5911 5911 5911 5912 5912 5913 5914 5915 5915 5916 5917 5917 5918 5919 5920 5922 5923 5924 5925 5926 5928 5929 5929 5929 5930
5851 5849 5848 5846 5845 5843 5842 5840 5839 5838 5838 5837 5837 5837 5837 5837 5837 5837 5838 5838 5839 5841 5842 5844 5845 5846 5847 5849 5850 5852 5854 5856 5858 5861 5862 5865 5867 5868 5871 5873 5875 5877 5879 5881 5883 5885 5887 5889 5891 5892 5893 5895 5898 5900 5901 5903 5906 5908 5909 5909 5909 5911 5912 5911 5911 5911 5912 5913 5914 5914 5915 5916 5916 5917 5918 5918 5919 5920 5922 5923 5924 5926 5927 5928 5930 5930 5929 5930
5847 5846 5844 5843 5841 5839 5838 5836 5835 5834 5833 5833 5832 5832 5833 5833 5833 5833 5833 5834 5835 5836 5838 5839 5841 5843 5844 5845 5846 5848 5851 5853 5855 5857 5859 5862 5864 5866 5869 5871 5873 5874 5876 5879 5881 5883 5885 5887 5888 5889 5891 5894 5896 5898 5900 5902 5905 5907 5908 5909 5909 5910 5911 5911 5911 5911 5912 5913 5914 5915 5915 5916 5916 5917 5918 5919 5919 5920 5922 5923 5924 5926 5927 5928 5930 5930 5930 5930
5844 5842 5840 5838 5837 5835 5833 5832 5830 5829 5829 5828 5828 5827 5827 5828 5828 5828 5829 5829 5830 5832 5833 5835 5837 5838 5840 5841 5842 5844 5848 5850 5852 5854 5857 5859 5861 5863 5866 5868 5869 5871 5874 5876 5879 5881 5883 5885 5886 5887 5890 5892 5894 5896 5899 5901 5904 5906 5907 5908 5909 5910 5911 5911 5912 5912 5913 5914 5914 5915 5915 5916 5917 5917 5918 5919 5920 5920 5922 5923 5924 5926 5927 5928 5930 5931 5931 5931
5840 5838 5836 5834 5832 5831 5829 5827 5826 5824 5824 5823 5822 5822 5822 5822 5823 5823 5824 5825 5826 5827 5828 5830 5832 5834 5836 5837 5839 5841 5844 5846 5848 5851 5854 5856 5858 5860 5863 5865 5867 5869 5871 5874 5876 5879 5881 5884 5884 5886 5888 5891 5893 5896 5898 5900 5903 5905 5905 5906 5908 5910 5910 5911 5912 5913 5913 5914 5915 5915 5915 5916 5916 5917 5918 5919 5920 5921 5922 5923 5924 5926 5927 5928 5930 5931 5931 5931
5836 5834 5832 5830 5828 5826 5824 5822 5821 5819 5818 5818 5817 5817 5817 5817 5817 5818 5819 5820 5821 5822 5823 5825 5827 5830 5831 5833 5835 5838 5840 5842 5845 5848 5851 5853 5855 5857 5860 5863 5865 5867 5869 5872 5875 5877 5879 5882 5883 5884 5887 5889 5892 5895 5896 5899 5901 5903 5904 5905 5907 5909 5910 5911 5911 5912 5913 5913 5914 5915 5915 5916 5916 5917 5918 5919 5920 5921 5922 5923 5924 5925 5927 5928 5929 5931 5932 5932
5833 5830 5828 5826 5824 5822 5819 5818 5816 5814 5813 5813 5812 5812 5811 5812 5812 5813 5814 5815 5816 5817 5819 5821 5823 5825 5827 5829 5832 5834 5837 5839 5841 5844 5847 5850 5852 5855 5857 5860 5862 5865 5868 5870 5873 5876 5878 5880 5882 5883 5885 5888 5891 5894 5896 5898 5900 5902 5903 5904 5906 5908 5909 5910 5910 5911 5912 5912 5913 5914 5915 5916 5916 5917 5918 5919 5920 5921 5922 5923 5924 5925 5926 5928 5929 5931 5932 5933
5829 5826 5824 5821 5819 5817 5815 5813 5812 5810 5809 5808 5807 5807 5807 5807 5807 5808 5810 5811 5812 5813 5814 5816 5818 5821 5823 5825 5828 5831 5833 5835 5837 5841 5844 5847 5849 5852 5855 5857 5860 5863 5866 5868 5871 5874 5876 5879 5880 5882 5885 5887 5890 5893 5896 5897 5899 5901 5903 5904 5905 5906 5907 5908 5910 5911 5912 5912 5912 5913 5914 5915 5915 5917 5918 5919 5920 5921 5922 5922 5924 5925 5926 5927 5929 5931 5932 5933
5825 5822 5820 5817 5815 5813 5811 5809 5808 5806 5805 5804 5803 5803 5803 5803 5804 5804 5805 5806 5808 5809 5811 5812 5814 5816 5819 5821 5824 5827 5829 5832 5834 5838 5841 5844 5847 5850 5853 5855 5857 5860 5863 5866 5868 5871 5873 5876 5878 5881 5884 5886 5888 5892 5895 5896 5898 5900 5901 5902 5904 5905 5905 5907 5908 5909 5911 5911 5911 5912 5913 5914 5915 5916 5918 5919 5920 5921 5922 5922 5923 5925 5926 5927 5928 5930 5932 5933
5821 5819 5816 5814 5812 5809 5807 5806 5804 5803 5801 5800 5799 5799 5799 5800 5800 5801 5801 5803 5804 5806 5807 5808 5811 5813 5815 5817 5820 5823 5826 5829 5831 5834 5838 5841 5844 5848 5851 5853 5856 5858 5861 5863 5866 5868 5871 5873 5877 5880 5882 5884 5887 5891 5893 5895 5897 5899 5900 5901 5902 5902 5903 5905 5906 5908 5909 5909 5909 5910 5912 5914 5915 5916 5917 5919 5920 5920 5921 5923 5923 5924 5925 5926 5928 5930 5931 5933
5818 5815 5813 5811 5808 5806 5804 5803 5801 5800 5799 5797 5797 5796 5796 5797 5797 5797 5798 5799 5801 5802 5804 5805 5807 5809 5811 5814 5817 5820 5823 5825 5828 5831 5835 5839 5842 5845 5848 5851 5854 5857 5859 5861 5863 5866 5868 5871 5874 5877 5879 5882 5886 5890 5892 5894 5895 5897 5899 5900 5901 5901 5902 5903 5904 5905 5907 5907 5908 5909 5910 5912 5914 5915 5916 5918 5919 5920 5921 5922 5923 5924 5925 5926 5927 5929 5931 5932
5815 5813 5810 5808 5806 5804 5802 5800 5799 5798 5796 5795 5794 5794 5794 5794 5794 5794 5795 5796 5798 5799 5801 5802 5804 5806 5808 5811 5814 5817 5820 5822 5825 5828 5832 5836 5839 5843 5846 5849 5852 5854 5857 5859 5862 5864 5866 5869 5871 5874 5878 5881 5885 5888 5889 5891 5893 5895 5897 5899 5900 5900 5900 5901 5902 5903 5904 5906 5908 5909 5909 5910 5912 5914 5916 5917 5918 5919 5920 5922 5923 5924 5925 5925 5926 5929 5930 5931
5813 5810 5808 5805 5804 5802 5800 5798 5797 5795 5794 5793 5792 5792 5792 5792 5792 5792 5793 5794 5795 5796 5798 5800 5801 5804 5806 5809 5811 5814 5817 5819 5822 5825 5829 5833 5836 5840 5843 5846 5849 5852 5854 5857 5860 5862 5865 5867 5870 5873 5876 5879 5882 5884 5886 5889 5891 5893 5895 5897 5898 5898 5898 5899 5900 5902 5903 5906 5907 5907 5908 5909 5910 5912 5914 5916 5917 5919 5920 5921 5923 5923 5925 5926 5926 5928 5930 5931
5811 5808 5806 5804 5802 5800 5798 5796 5795 5793 5792 5791 5791 5790 5790 5790 5790 5790 5790 5791 5792 5794 5795 5797 5799 5801 5803 5806 5808 5811 5814 5816 5819 5823 5826 5830 5833 5837 5840 5843 5847 5850 5852 5855 5857 5860 5863 5865 5868 5872 5873 5875 5878 5881 5884 5887 5890 5892 5894 5895 5896 5897 5897 5897 5898 5900 5902 5904 5905 5906 5906 5907 5908 5910 5913 5915 5917 5918 5919 5920 5922 5923 5924 5925 5926 5927 5929 5931
5809 5806 5804 5802 5800 5798 5796 5794 5793 5792 5791 5790 5789 5789 5788 5788 5788 5788 5788 5789 5790 5791 5793 5794 5797 5799 5801 5804 5806 5808 5811 5814 5817 5821 5824 5827 5830 5834 5837 5841 5844 5847 5850 5853 5856 5858 5860 5863 5867 5869 5870 5872 5875 5879 5883 5885 5888 5890 5892 5894 5894 5895 5895 5895 5897 5898 5900 5901 5902 5904 5904 5905 5906 5909 5911 5913 5914 5916 5918 5919 5920 5922 5923 5925 5926 5927 5928 5930
5807 5804 5802 5800 5798 5796 5794 5793 5791 5790 5789 5788 5788 5787 5787 5787 5786 5786 5786 5787 5788 5789 5790 5792 5794 5796 5799 5801 5803 5806 5809 5812 5815 5819 5822 5825 5827 5831 5835 5839 5842 5845 5848 5852 5855 5857 5859 5862 5864 5866 5868 5871 5873 5877 5881 5884 5887 5888 5890 5891 5892 5893 5895 5895 5895 5897 5898 5899 5900 5902 5902 5903 5904 5906 5908 5910 5913 5915 5917 5918 5919 5920 5922 5924 5926 5927 5928 5930
5805 5803 5800 5798 5796 5794 5793 5791 5790 5789 5788 5787 5786 5786 5785 5785 5785 5785 5785 5785 5786 5787 5788 5790 5792 5794 5796 5798 5801 5804 5806 5809 5813 5816 5819 5822 5825 5830 5833 5836 5839 5843 5847 5850 5853 5856 5858 5860 5861 5864 5866 5869 5872 5875 5879 5882 5885 5886 5887 5888 5889 5891 5893 5893 5894 5895 5896 5897 5898 5900 5901 5901 5903 5904 5906 5909 5912 5914 5915 5917 5918 5919 5921 5923 5925 5926 5928 5929
5803 5801 5798 5796 5794 5793 5791 5790 5788 5787 5787 5786 5785 5784 5784 5784 5784 5784 5784 5784 5784 5785 5786 5788 5790 5791 5793 5796 5799 5802 5805 5808 5810 5813 5816 5819 5823 5827 5829 5833 5837 5841 5844 5848 5851 5853 5854 5856 5860 5862 5865 5867 5870 5874 5877 5879 5882 5884 5885 5886 5887 5889 5890 5891 5893 5894 5895 5896 5897 5899 5900 5900 5902 5903 5905 5908 5910 5912 5914 5916 5917 5918 5920 5922 5924 5926 5927 5929
5801 5799 5796 5794 5793 5791 5789 5788 5787 5786 5785 5785 5784 5783 5783 5783 5782 5782 5782 5782 5783 5784 5785 5786 5787 5789 5792 5794 5797 5800 5803 5805 5808 5811 5814 5817 5820 5824 5827 5831 5835 5838 5841 5845 5848 5849 5850 5854 5857 5860 5863 5866 5869 5872 5874 5876 5879 5881 5883 5884 5886 5887 5889 5890 5892 5894 5894 5895 5896 5898 5899 5899 5900 5902 5904 5906 5908 5910 5912 5914 5916 5917 5919 5921 5923 5925 5927 5928
5799 5797 5795 5793 5791 5789 5788 5787 5786 5785 5784 5784 5783 5782 5782 5781 5781 5781 5781 5781 5782 5782 5783 5784 5786 5788 5790 5792 5796 5798 5800 5803 5806 5809 5811 5815 5818 5822 5825 5828 5832 5836 5839 5843 5845 5846 5849 5853 5855 5858 5862 5864 5867 5870 5872 5875 5877 5878 5880 5883 5885 5886 5888 5889 5892 5893 5893 5894 5895 5896 5897 5897 5897 5900 5903 5905 5906 5908 5910 5912 5915 5917 5918 5920 5922 5924 5926 5928
5798 5795 5793 5791 5789 5788 5787 5786 5785 5784 5783 5783 5782 5781 5781 5780 5780 5780 5780 5780 5781 5781 5782 5783 5785 5787 5789 5791 5794 5795 5797 5801 5804 5807 5810 5813 5816 5819 5822 5825 5829 5834 5837 5841 5842 5844 5848 5850 5852 5856 5860 5863 5866 5867 5869 5872 5874 5875 5879 5882 5883 5885 5887 5888 5891 5892 5892 5893 5894 5895 5896 5896 5896 5898 5901 5903 5904 5906 5909 5912 5913 5916 5917 5919 5921 5922 5924 5926
5796 5794 5791 5790 5788 5787 5786 5785 5784 5783 5783 5782 5781 5780 5779 5779 5778 5779 5779 5779 5780 5780 5781 5782 5784 5785 5787 5790 5792 5794 5797 5799 5801 5804 5808 5811 5813 5816 5819 5823 5827 5830 5835 5839 5840 5841 5845 5847 5849 5854 5857 5861 5863 5865 5867 5869 5870 5874 5878 5879 5881 5884 5886 5888 5890 5891 5892 5893 5893 5893 5895 5896 5896 5898 5900 5902 5904 5907 5909 5911 5912 5914 5916 5918 5919 5921 5923 5925
5794 5792 5790 5788 5787 5786 5785 5784 5784 5783 5782 5781 5780 5779 5779 5778 5778 5778 5779 5779 5779 5780 5780 5782 5783 5784 5786 5788 5791 5793 5796 5797 5799 5803 5805 5808 5811 5814 5817 5820 5824 5828 5833 5835 5836 5838 5842 5845 5848 5851 5854 5858 5860 5862 5864 5866 5868 5873 5876 5877 5880 5883 5885 5887 5889 5891 5892 5892 5892 5893 5895 5896 5897 5898 5899 5901 5904 5906 5907 5909 5910 5911 5913 5916 5918 5919 5921 5923
5793 5791 5789 5787 5786 5785 5784 5784 5783 5782 5782 5781 5780 5779 5778 5778 5778 5779 5779 5779 5779 5780 5781 5781 5782 5784 5785 5787 5790 5792 5794 5796 5799 5801 5804 5807 5810 5812 5815 5819 5823 5827 5830 5832 5833 5837 5842 5843 5845 5848 5852 5855 5858 5861 5862 5864 5867 5871 5874 5876 5879 5882 5884 5887 5888 5890 5892 5892 5892 5893 5895 5896 5896 5897 5899 5900 5902 5903 5905 5908 5909 5910 5912 5914 5917 5918 5920 5922
5792 5789 5788 5786 5785 5784 5784 5783 5783 5782 5781 5780 5780 5779 5778 5779 5779 5779 5780 5780 5780 5780 5781 5781 5782 5784 5785 5787 5789 5791 5793 5795 5797 5800 5803 5806 5808 5811 5814 5817 5821 5824 5827 5830 5833 5837 5840 5841 5843 5846 5850 5854 5857 5859 5861 5863 5866 5869 5872 5875 5878 5881 5883 5885 5887 5890 5891 5892 5892 5892 5893 5894 5896 5897 5898 5899 5900 5902 5904 5906 5907 5908 5910 5912 5915 5917 5919 5920
5790 5788 5787 5785 5784 5784 5783 5783 5782 5781 5780 5780 5780 5779 5779 5779 5780 5780 5780 5780 5780 5781 5781 5782 5783 5784 5785 5788 5789 5790 5792 5794 5797 5800 5802 5804 5807 5809 5812 5814 5817 5822 5825 5828 5831 5835 5837 5839 5841 5844 5848 5851 5854 5857 5859 5862 5864 5867 5870 5874 5877 5879 5882 5884 5887 5889 5891 5891 5890 5891 5893 5894 5895 5896 5897 5898 5900 5902 5903 5904 5906 5907 5908 5910 5913 5916 5918 5919
5789 5787 5786 5784 5784 5783 5783 5782 5782 5781 5780 5780 5780 5780 5780 5780 5780 5780 5780 5780 5781 5781 5782 5782 5783 5784 5786 5788 5789 5790 5792 5794 5796 5799 5801 5804 5806 5808 5810 5812 5816 5820 5822 5825 5829 5833 5836 5838 5840 5842 5846 5849 5852 5855 5857 5860 5862 5865 5869 5872 5875 5878 5881 5883 5886 5888 5889 5888 5888 5891 5892 5893 5895 5896 5896 5898 5899 5901 5902 5904 5905 5906 5907 5908 5910 5913 5915 5918
5787 5786 5784 5783 5783 5783 5782 5782 5781 5781 5780 5780 5780 5780 5781 5781 5781 5781 5781 5781 5781 5782 5782 5783 5784 5785 5786 5787 5788 5790 5792 5793 5795 5798 5800 5803 5805 5807 5809 5811 5815 5817 5820 5824 5827 5830 5833 5834 5836 5839 5843 5847 5850 5853 5855 5858 5862 5865 5868 5870 5873 5876 5879 5881 5883 5885 5887 5887 5887 5889 5891 5892 5894 5894 5895 5897 5899 5899 5901 5902 5904 5905 5906 5907 5908 5910 5913 5916
5786 5785 5783 5783 5782 5782 5782 5781 5781 5780 5780 5780 5781 5781 5781 5781 5781 5781 5781 5781 5782 5782 5783 5783 5784 5785 5786 5787 5788 5789 5791 5792 5794 5797 5799 5801 5803 5805 5806 5808 5811 5815 5819 5823 5826 5828 5831 5832 5834 5838 5841 5845 5849 5851 5855 5859 5862 5864 5866 5869 5872 5874 5877 5880 5882 5884 5885 5886 5886 5889 5891 5891 5892 5893 5895 5896 5898 5898 5900 5901 5903 5904 5905 5906 5907 5909 5911 5913
5785 5783 5782 5782 5781 5781 5781 5781 5781 5780 5780 5780 5781 5781 5781 5781 5781 5781 5781 5782 5782 5783 5783 5784 5785 5785 5786 5787 5788 5788 5790 5791 5794 5796 5798 5800 5801 5802 5804 5805 5808 5813 5817 5820 5822 5825 5829 5830 5832 5836 5840 5843 5847 5849 5853 5857 5859 5861 5864 5867 5871 5873 5875 5878 5881 5882 5884 5885 5886 5888 5890 5890 5891 5893 5894 5895 5896 5897 5899 5900 5902 5903 5904 5905 5906 5908 5909 5911
5783 5782 5781 5781 5780 5780 5781 5781 5780 5780 5780 5780 5781 5781 5781 5781 5781 5781 5781 5781 5782 5782 5783 5784 5785 5785 5786 5788 5788 5788 5789 5792 5794 5795 5797 5799 5800 5801 5803 5805 5807 5811 5814 5818 5820 5823 5826 5829 5831 5835 5839 5841 5844 5847 5850 5853 5855 5858 5862 5865 5869 5872 5874 5877 5879 5881 5883 5884 5885 5887 5888 5889 5890 5892 5893 5894 5896 5897 5898 5899 5901 5902 5903 5904 5905 5906 5907 5908
5782 5781 5780 5780 5780 5780 5780 5780 5780 5780 5780 5780 5780 5780 5780 5781 5781 5781 5781 5781 5782 5782 5783 5784 5784 5784 5785 5787 5788 5788 5789 5791 5793 5794 5796 5798 5799 5800 5802 5804 5806 5810 5813 5816 5819 5821 5825 5829 5830 5833 5837 5839 5842 5845 5848 5851 5853 5856 5859 5862 5866 5869 5872 5874 5876 5879 5881 5883 5884 5886 5887 5888 5889 5890 5892 5894 5895 5897 5898 5899 5900 5901 5902 5903 5904 5905 5905 5906
5781 5780 5779 5779 5779 5779 5779 5779 5779 5779 5780 5780 5780 5780 5780 5780 5781 5781 5781 5781 5781 5782 5782 5783 5783 5784 5784 5786 5787 5787 5789 5791 5792 5793 5795 5796 5798 5799 5800 5802 5805 5808 5812 5814 5816 5819 5823 5827 5828 5830 5834 5837 5840 5842 5846 5849 5852 5855 5858 5860 5863 5866 5869 5871 5873 5877 5879 5881 5883 5885 5886 5886 5887 5889 5891 5892 5894 5896 5897 5898 5899 5900 5901 5901 5902 5903 5903 5904
5779 5778 5778 5777 5778 5778 5778 5779 5779 5779 5779 5779 5779 5779 5779 5780 5780 5780 5781 5781 5781 5781 5781 5782 5782 5783 5784 5785 5786 5787 5788 5790 5791 5793 5794 5795 5796 5798 5799 5801 5804 5807 5810 5813 5815 5817 5821 5824 5826 5829 5833 5837 5838 5840 5844 5847 5849 5853 5857 5860 5861 5864 5866 5869 5872 5875 5878 5879 5881 5883 5884 5884 5886 5888 5889 5891 5894 5895 5896 5897 5898 5899 5899 5900 5900 5901 5901 5901
5778 5777 5777 5776 5776 5777 5777 5778 5778 5778 5778 5778 5778 5778 5779 5779 5779 5780 5780 5780 5780 5780 5781 5781 5782 5782 5783 5784 5785 5786 5788 5789 5790 5792 5794 5794 5795 5796 5798 5800 5802 5805 5808 5811 5813 5815 5818 5821 5824 5827 5832 5835 5835 5837 5840 5844 5847 5852 5855 5858 5860 5862 5865 5868 5871 5874 5875 5877 5879 5881 5882 5884 5885 5887 5889 5891 5892 5894 5895 5895 5896 5897 5898 5899 5899 5899 5899 5899
5776 5776 5775 5775 5775 5776 5776 5777 5777 5777 5777 5777 5778 5778 5778 5778 5778 5778 5779 5779 5780 5780 5780 5780 5781 5781 5782 5783 5784 5786 5787 5788 5790 5791 5793 5794 5794 5795 5797 5799 5801 5804 5806 5809 5811 5813 5816 5819 5823 5826 5829 5831 5831 5834 5839 5842 5845 5849 5851 5854 5857 5860 5864 5867 5870 5871 5873 5875 5878 5880 5881 5883 5884 5885 5887 5889 5891 5892 5894 5894 5894 5895 5896 5897 5897 5897 5897 5897
5775 5774 5774 5774 5774 5775 5775 5776 5776 5776 5777 5777 5777 5777 5777 5777 5777 5777 5778 5778 5778 5779 5779 5779 5780 5781 5782 5782 5784 5785 5786 5787 5789 5791 5792 5793 5794 5795 5796 5798 5800 5802 5804 5807 5809 5812 5814 5818 5821 5824 5827 5829 5831 5834 5837 5839 5842 5846 5849 5852 5855 5858 5862 5865 5867 5868 5870 5873 5875 5877 5880 5881 5882 5883 5885 5887 5889 5890 5892 5893 5893 5894 5895 5895 5895 5895 5896 5896
5773 5773 5773 5773 5773 5774 5774 5774 5775 5775 5775 5776 5776 5776 5776 5776 5776 5776 5776 5777 5777 5778 5778 5778 5779 5780 5781 5782 5783 5784 5785 5786 5788 5790 5791 5792 5793 5794 5796 5797 5799 5801 5803 5804 5807 5809 5813 5816 5819 5822 5826 5828 5831 5833 5835 5837 5841 5844 5846 5848 5852 5855 5858 5861 5863 5865 5868 5871 5873 5875 5877 5878 5879 5881 5883 5885 5887 5888 5890 5891 5892 5893 5894 5894 5894 5895 5896 5896
5772 5771 5771 5772 5772 5772 5773 5773 5774 5774 5774 5775 5775 5775 5775 5775 5775 5775 5775 5775 5776 5776 5777 5777 5778 5779 5780 5781 5782 5783 5784 5786 5787 5789 5790 5791 5793 5794 5795 5797 5798 5800 5801 5803 5805 5807 5811 5814 5816 5820 5823 5825 5828 5830 5832 5835 5839 5841 5843 5845 5849 5852 5854 5857 5860 5862 5865 5868 5870 5872 5875 5877 5878 5879 5881 5883 5884 5886 5888 5889 5891 5892 5892 5893 5894 5895 5896 5897
5770 5770 5770 5770 5771 5771 5771 5772 5772 5773 5773 5773 5774 5774 5774 5774 5774 5774 5774 5774 5775 5775 5776 5776 5777 5777 5778 5779 5781 5782 5783 5785 5786 5787 5788 5790 5792 5793 5794 5796 5797 5799 5800 5801 5803 5806 5809 5812 5814 5817 5820 5822 5825 5827 5830 5834 5837 5839 5842 5845 5848 5850 5852 5855 5858 5860 5863 5865 5867 5870 5873 5875 5877 5878 5879 5881 5883 5884 5886 5887 5889 5890 5891 5892 5893 5894 5895 5896
5768 5768 5768 5769 5769 5770 5770 5771 5771 5772 5772 5772 5772 5773 5773 5774 5774 5773 5773 5774 5774 5774 5774 5775 5775 5776 5777 5778 5779 5780 5781 5783 5784 5786 5787 5789 5790 5792 5793 5795 5796 5798 5799 5800 5802 5804 5807 5810 5812 5815 5818 5821 5823 5826 5828 5832 5835 5838 5841 5844 5846 5848 5850 5853 5856 5858 5860 5863 5865 5867 5870 5872 5874 5876 5878 5879 5881 5882 5884 5886 5887 5888 5890 5891 5892 5893 5894 5896
5766 5766 5767 5768 5768 5769 5769 5770 5770 5771 5771 5771 5772 5772 5772 5773 5773 5773 5773 5773 5773 5773 5773 5774 5774 5775 5775 5776 5777 5778 5780 5781 5782 5784 5786 5788 5789 5790 5792 5793 5795 5796 5798 5799 5800 5803 5806 5808 5810 5813 5816 5819 5822 5825 5827 5830 5833 5836 5838 5841 5843 5846 5849 5851 5853 5855 5857 5860 5863 5865 5866 5868 5871 5873 5875 5877 5879 5881 5882 5883 5885 5886 5888 5889 5891 5892 5893 5895
5765 5765 5766 5766 5767 5768 5768 5769 5769 5770 5770 5771 5771 5771 5771 5772 5772 5772 5772 5772 5772 5772 5772 5773 5773 5774 5774 5775 5776 5778 5779 5779 5781 5782 5784 5786 5787 5788 5789 5791 5793 5795 5796 5797 5799 5801 5804 5807 5808 5811 5815 5818 5821 5823 5826 5829 5832 5833 5835 5838 5840 5843 5845 5848 5850 5853 5855 5857 5859 5861 5862 5864 5867 5870 5872 5874 5876 5878 5880 5881 5882 5884 5886 5887 5889 5890 5891 5892
5763 5763 5764 5765 5766 5767 5767 5768 5768 5769 5769 5770 5770 5770 5771 5771 5771 5771 5772 5771 5771 5772 5772 5772 5772 5773 5774 5774 5776 5777 5778 5779 5779 5781 5782 5783 5784 5786 5788 5789 5791 5793 5795 5796 5798 5800 5802 5805 5807 5811 5814 5816 5818 5822 5825 5828 5830 5831 5833 5835 5838 5840 5842 5844 5847 5850 5852 5853 5855 5857 5859 5862 5864 5866 5869 5871 5873 5875 5877 5878 5880 5882 5883 5885 5887 5888 5889 5890
5761 5762 5763 5764 5765 5766 5766 5767 5768 5768 5769 5769 5769 5769 5770 5770 5771 5771 5771 5771 5771 5771 5771 5771 5771 5772 5773 5774 5775 5776 5776 5777 5777 5778 5780 5781 5782 5784 5786 5788 5790 5792 5794 5795 5796 5799 5801 5803 5806 5809 5812 5814 5816 5819 5822 5825 5827 5828 5829 5832 5835 5838 5840 5842 5844 5846 5848 5850 5852 5854 5856 5859 5862 5864 5866 5868 5870 5872 5874 5875 5877 5879 5880 5882 5884 5885 5886 5887